Albuquerque, NM

1:00 PM MDT on May 29, 2017 (GMT -0600)
Albuquerque International Sunport

Weather History for KABQ - January, 2013

Change the Weather History Date:

Thursday, January 24, 2013

  Actual Average Record
Temperature  
Mean Temperature 43 °F 37 °F  
Max Temperature 60 °F 48 °F 69 °F (1910)
Min Temperature 25 °F 27 °F 1 °F (1913)
Degree Days  
Heating Degree Days 22 28  
Month to date heating degree days 814 694  
Since 1 July heating degree days 2318 2451  
Cooling Degree Days 0 0  
Month to date cooling degree days 0 0  
Year to date cooling degree days 0 0  
Moisture  
Dew Point 15 °F    
Average Humidity 34    
Maximum Humidity 52    
Minimum Humidity 15    
Precipitation  
Precipitation 0.00 in 0.01 in 0.37 in (2012)
Month to date precipitation T 0.29  
Year to date precipitation T 0.29  
Snow  
Snow 0.00 in - - ()
Month to date snowfall 0.2  
Since 1 July snowfall 0.7  
Snow Depth 0.00 in    
Sea Level Pressure  
Sea Level Pressure 30.25 in    
Wind  
Wind Speed 4 mph (NW)    
Max Wind Speed 14 mph    
Max Gust Speed 17 mph    
Visibility 10 miles    
Events      
T = Trace of Precipitation, MM = Missing Value Source: NWS Daily Summary

Daily Weather History Graph

Daily Weather History Graph

Search for Another Location

Airport or City:

Trip Planner

Search our weather history database for the weather conditions in past years. The results will help you decide how hot, cold, wet, or windy it might be!

Date:

Astronomy

Jan. 24, 2013 Rise Set
Actual Time 7:10 AM MST 5:27 PM MST
Civil Twilight 6:43 AM MST 5:54 PM MST
Nautical Twilight 6:12 AM MST 6:25 PM MST
Astronomical Twilight 5:42 AM MST 6:55 PM MST
Moon 3:33 PM MST (1/24) 5:08 AM MST (1/24)
Length of Visible Light 11h 11m
Length of Day
10h 17m
Waxing Gibbous, 95% of the Moon is Illuminated
Jan 24
Waxing Gibbous
Jan 26
Full
Feb 3
Last Quarter
Feb 10
New
Feb 17
First Quarter

Hourly Weather History & Observations

Time (MST) Temp. Windchill Dew Point Humidity Pressure Visibility Wind Dir Wind Speed Gust Speed Precip Events Conditions
12:52 AM 37.0 °F 33.3 °F 9.0 °F 31% 30.28 in 10.0 mi North 4.6 mph - N/A   Partly Cloudy
1:52 AM 28.9 °F 25.2 °F 6.1 °F 38% 30.30 in 10.0 mi SE 3.5 mph - N/A   Clear
2:52 AM 32.0 °F - 9.0 °F 38% 30.29 in 10.0 mi Calm Calm - N/A   Partly Cloudy
3:52 AM 32.0 °F 28.7 °F 9.0 °F 38% 30.29 in 10.0 mi ENE 3.5 mph - N/A   Scattered Clouds
4:52 AM 28.0 °F 20.8 °F 7.0 °F 41% 30.29 in 10.0 mi West 6.9 mph - N/A   Scattered Clouds
5:52 AM 28.0 °F 21.7 °F 9.0 °F 45% 30.31 in 10.0 mi East 5.8 mph - N/A   Partly Cloudy
6:52 AM 28.9 °F 21.9 °F 10.0 °F 45% 30.34 in 10.0 mi WNW 6.9 mph - N/A   Scattered Clouds
7:52 AM 30.0 °F 23.2 °F 10.0 °F 43% 30.33 in 10.0 mi ENE 6.9 mph - N/A   Scattered Clouds
8:52 AM 35.1 °F - 10.0 °F 35% 30.34 in 10.0 mi Calm Calm - N/A   Mostly Cloudy
9:52 AM 43.0 °F - 10.9 °F 27% 30.32 in 10.0 mi Calm Calm - N/A   Mostly Cloudy
10:52 AM 46.9 °F - 10.9 °F 23% 30.32 in 10.0 mi Calm Calm - N/A   Mostly Cloudy
11:52 AM 51.1 °F - 10.9 °F 20% 30.27 in 10.0 mi WSW 3.5 mph - N/A   Mostly Cloudy
12:52 PM 54.0 °F - 9.0 °F 17% 30.21 in 10.0 mi Calm Calm - N/A   Scattered Clouds
1:52 PM 57.9 °F - 10.9 °F 16% 30.19 in 10.0 mi Calm Calm - N/A   Scattered Clouds
2:52 PM 59.0 °F - 12.9 °F 16% 30.15 in 10.0 mi Calm Calm - N/A   Mostly Cloudy
3:52 PM 59.0 °F - 12.9 °F 16% 30.15 in 10.0 mi SSW 8.1 mph - N/A   Mostly Cloudy
4:52 PM 57.0 °F - 14.0 °F 18% 30.18 in 10.0 mi SW 11.5 mph - N/A   Mostly Cloudy
5:52 PM 55.9 °F - 12.9 °F 18% 30.19 in 10.0 mi SW 6.9 mph - N/A   Mostly Cloudy
6:52 PM 55.9 °F - 15.1 °F 20% 30.19 in 10.0 mi NW 3.5 mph - N/A   Mostly Cloudy
7:52 PM 55.0 °F - 27.0 °F 34% 30.22 in 10.0 mi WNW 6.9 mph - N/A   Overcast
8:52 PM 54.0 °F - 32.0 °F 43% 30.22 in 10.0 mi NNW 11.5 mph - N/A   Mostly Cloudy
9:52 PM 52.0 °F - 33.1 °F 49% 30.20 in 10.0 mi NNW 8.1 mph - N/A   Mostly Cloudy
10:52 PM 50.0 °F - 34.0 °F 54% 30.21 in 10.0 mi North 4.6 mph - N/A   Mostly Cloudy
11:52 PM 48.0 °F - 33.1 °F 56% 30.20 in 10.0 mi Calm Calm - N/A   Scattered Clouds